Location: Valencia
(39.4696°N, 0.3770°W)
Time: 05:34:52
(UTC+02:00)

ISS - Visible Passes

Search period start: 23 August 2014 00:00
Search period end: 02 September 2014 00:00
Orbit: 413 x 419 km, 51.6° (Epoch: 22 August)

Date Brightness Start Highest point End Pass type
(mag) Time Alt. Az. Time Alt. Az. Time Alt. Az.
23 Aug -1.2 22:32:09 10° W 22:34:35 19° SW 22:35:15 18° SSW visible
24 Aug -1.9 21:43:06 10° WNW 21:46:09 33° SW 21:48:49 12° SSE visible
26 Aug -0.4 21:44:08 10° WSW 21:45:20 12° SW 21:46:32 10° SSW visible
